Location: São Paulo
(23.5507°S, 46.6334°W)
Time: 06:40:01
(UTC-03:00)

Transit 2A - Pass Details

Date: 24 February 2026
Orbit: 590 x 954 km, 66.7° (Epoch: 10 March)

Event Time Altitude Azimuth Distance (km) Brightness Sun altitude
Rises 22:22:25 0° 331° (NNW) 3,024 - -46.5°
Reaches altitude 10° 22:24:49 10° 328° (NNW) 2,066 - -46.9°
Maximum altitude 22:29:23 63° 247° (WSW) 699 - -47.6°
Drops below altitude 10° 22:33:44 10° 165° (SSE) 1,958 - -48.3°
Sets 22:35:58 0° 161° (SSE) 2,851 - -48.6°
